Погода Пушкинские Горы

Хотите узнать прогноз погоды Пушкинские Горы? Тогда Вам сюда: Погода Пушкинские Горы

Поиск расширенной информации на нашем сайте:

Полезная информация:

Новости сайта



02.01.2020
Опубликован Долгосрочный прогноз погоды по городам России и ближнего зарубежья на январь 2020 года.
Карты: Прогноз на январь и февраль 2020 года, Сравнение прогнозируемой аномалии приземной температуры воздуха на январь 2020 года по разным моделям.




Погода Пушкинские Горы - сегодня

Время (UTC), дата Ветер
(°,м/с) 
Видим.   Явления Облачность Т
(°С)
Тd
(°С)
f(%) Тe
(°С)
Pmin
(гПа)
dP
(гПа)
Po
(мм)
O2
(г/м3)
Тmin Tmax R s Состояние
почвы
15 02.07.20 210 (ЮЗ) 20000 м  {гроза, ливн. осадки}  8/4 600 м кучево-дожд., верхняя 
[Cb calv|Ci fib]
+22 +16.2 70 +33  1006.5  -0.5  746  275      0.0     
18 02.07.20 180 (Ю) 10 км  гроза, ливневой дождь  9/8 600 м кучево-дожд., средняя 
[Cb cap|Ac cuf]
+18.7 +17.7 94 +34  1007.2  0.6  746  277    +23.1     
21 02.07.20 190 (Ю) 20000 м  {гроза}  9/9 1000 м 
[Sc]
+16.9 +16.5 97 +29  1008.1  0.8  747  280           
00 03.07.20 210 (ЮЗ) 20000 м    1/0 верхняя 
[Ci fib]
+14.8 +14.5 98 +24  1009.2  748  283           
03 03.07.20 180 (Ю) 10 км    9/0 верхняя 
[Ci]
+13.9 +13.6 98 +21  1010.6  1.3  749  284  +13.2       
06 03.07.20 190 (Ю) 20000 м    8/4 600 м кучево-дожд., верхняя 
[Cb cap|Ci fib]
+17.2 +14.6 85 +26  1011.6  1.1  750  281  +13.2         
09 03.07.20 220 (ЮЗ) 20000 м    8/5 600 м кучево-дожд., средняя 
[Cb cap|Ac trans]
+20.4 +13.2 63 +26  1011.7  0.3  750  279           
12 03.07.20 200 (Ю) 20000 м    8/8 1000 м кучево-дожд. 
[Cb cap]
+22.7 +12.1 51 +27  1011.4  -0.2  750  277           
15 03.07.20 250 (З) 20000 м    8/4 1000 м кучево-дожд., средняя, верхняя 
[Cb cap|Ac trans|Ci fib]
+23 +12.3 51 +27  1011.1  -0.3  749  276           
18 03.07.20 тихо ()   20000 м    9/3 600 м кучево-дожд., средняя, верхняя 
[Cb cap|Ac trans|Ci fib]
+18.1 +14.8 81 +26  1011.5  0.2  750  280    +23.7       
21 03.07.20 140 (ЮВ) 20000 м    3/0 средняя 
[Ac trans]
+13.7 +12.5 92 +20  1012.2  0.5  750  285           
00 04.07.20 150 (ЮВ) 20000 м    8/0 средняя 
[Ac As]
+13.5 +13 97 +20  1012.5  0.3  750  285           
03 04.07.20 160 (Ю) 20000 м    9/0 средняя 
[Ac As]
+14.3 +13.1 92 +22  1012.7  0.2  750  285  +12.6         
06 04.07.20 250 (З) 20000 м    3/1 600 м верхняя 
[Cu med, cong|Ci fib]
+19.3 +14.4 73 +28  1012.9  0.3  751  279  +12.6         
09 04.07.20 240 (ЮЗ) 20000 м    9/8 600 м верхняя 
[Cu med, cong|Ci fib]
+21.1 +13.3 61 +27  1013.1  0.4  751  278           
12 04.07.20 230 (ЮЗ) 20000 м    8/3 1000 м верхняя 
[Cu med, cong|Ci fib]
+22.4 +11.6 50 +26  1012.7  -0.4  751  277           
15 04.07.20 240 (ЮЗ) 20000 м    8/3 1000 м верхняя 
[Cu med, cong|Ci fib]
+22.6 +12.3 52 +27  1012.4  -0.3  750  277           
18 04.07.20 210 (ЮЗ) 20000 м    9/8 600 м кучево-дожд., верхняя 
[Cb cap|Ci fib]
+19.5 +12.7 65 +26  1012.4  -0.1  750  280    +23.1       
21 04.07.20 160 (Ю) 20000 м    9/4 600 м кучево-дожд., средняя, верхняя 
[Cb cap|Ac und|Ci fib]
+17.3 +13.3 77 +25  1011.9  -0.6  750  281           
00 05.07.20 150 (ЮВ) 20000 м    9/4 600 м кучево-дожд., средняя, верхняя 
[Cb cap|Ac und|Ci fib]
+15.8 +12.7 82 +22  1011.2  -0.7  749  283           
03 05.07.20 160 (Ю) 20000 м    9/0 средняя 
[Ac trans]
+16.1 +12.5 79 +22  1009.9  -1.3  748  282  +15         
06 05.07.20 230 (ЮЗ) 20000 м    10/6 600 м средняя 
[Sc|Ac As]
+19.7 +13.6 68 +26  1009.1  -0.6  748  278  +15         
09 05.07.20 200 (Ю) 10 км  слаб. ливневой дождь  10/10 600 м кучево-дожд. 
[Cb cap]
+18.2 +16.2 88 +30  1009.5  0.3  748  279           
12 05.07.20 230 (ЮЗ) 20000 м  {ливн. осадки}  9/9 600 м кучево-дожд. 
[Cb cap]
+20 +15.3 74 +29  1008.4  -1  747  277           
15 05.07.20 210 (ЮЗ) 20000 м    9/9 1000 м 
[Sc]
+20.4 +15.9 75 +31  1008  -0.4  747  277      0.5     
Время (UTC), дата Ветер
(°,м/с) 
Видим.   Явления Облачность Т
(°С)
Тd
(°С)
f(%) Тe
(°С)
Pmin
(гПа)
dP
(гПа)
Po
(мм)
O2
(г/м3)
Тmin Tmax R s Состояние
почвы

Для получения пояснительной информации подведите курсор к названию столбца.

ПОГОДА Пушкинские Горы - архив

Всё, что Вы хотите узнать о погоде Пушкинские Горы - удобно и подробно!

Выберите нужную дату (начиная с 1 января 2019* года) и нажмите кнопку "Найти".
Будут отображены архивные сводки погоды по пункту Пушкинские Горы, начиная с указанной даты.


Отображать данные в формате CSV (для использования в таблицах Excel)


Внимание! Наш архив погоды предназначен исключительно для личного некоммерческого использования в познавательных целях. Если Вам необходимы официальные справки о состоянии погоды (для производственных, юридических, коммерческих и т.п. целей), обращайтесь в органы Росгидромета.

*Примечание: данная дата относится к архиву по метеостанциям СССР (Россия, СНГ, Балтия).
Архив по метеостанциям Зарубежной Европы и Азии (кроме Китая) хранится 10 дней, по другим регионам земного шара (Китай, Африка, Америка, Австралия, Океания) - 1 день.

Пушкинские Горы - район местоположения метеостанции


Название, широта, долгота, высота метеостанции:
Пушкинские Горы 57°ш. 28.9°д. 108 м над ур. моря [Российская Федерация]

Дополнительная информация

В oтличие oт бoльшинства пoгoдных сайтoв мы публикуем пoдрoбную метеoинфoрмацию в детальнoм прoфессиoнальнoм фoрмате.

Характеристики температуры и влажнoсти вoздуха измеряются на высoте 2 м в тени вдали oт зданий и деревьев.
Скoрoсть ветра измеряется на высoте 10 м (на урoвне рoста челoвека скoрoсть ветра ниже в 1.5-2 раза). Если метеoстанция нахoдится в гoрoде или в лесу, тo скoрoсть ветра занижена на 2-4 м/с пo сравнению с oткрытым местoм. Скoрoсть ветра над акватoриями крупных рек и oзёр, а также на вершинах хoлмoв на 2-5 м/с выше, чем в oбычных услoвиях.
Атмoсфернoе давление в разных тoчках местнoсти мoжет значительнo oтличаться oт давления на метеoстанции, в зависимoсти oт услoвий рельефа (при пoдъёме на 10 м давление пoнижается примернo на 1 мм рт.ст.).